Location: Fort Frances
(48.6170°N, 93.4170°W)
Time: 21:59:00
(UTC-05:00)

Daily predictions for brighter satellites

Satellite Brightness Start Highest point End
(mag) Time Altitude Azimuth Time Altitude Azimuth Time Altitude Azimuth
CZ-2C R/B 4.3 18:39:38 10° SSW 18:43:49 35° W 18:48:06 10° NNW
YAOGAN 1 2.6 18:39:54 10° SSE 18:44:10 63° ENE 18:48:28 10° N
Meteor 2-14 Rocket 4.4 18:39:44 10° S 18:45:48 75° E 18:51:52 10° NNE
Aureole 1 Rocket 3.5 18:40:24 10° SSW 18:46:31 82° ESE 18:51:07 10° NNE
Gbstr 26 Del rocket 3.4 18:42:49 10° WNW 18:47:27 80° NNE 18:53:15 10° ESE
Cosmos 2237 4.3 18:41:49 10° NNW 18:47:31 61° ENE 18:53:10 10° SE
BREEZE-M DEB (TANK) 3.5 18:44:14 10° WNW 18:47:38 78° SSW 18:59:25 10° ESE
Cosmos 2058 3.0 18:46:20 10° N 18:50:30 58° ENE 18:54:36 10° SSE
Cosmos 1908 4.3 18:47:27 10° SE 18:50:40 25° E 18:53:53 10° NE
Meteor 2-16 Rocket 4.4 18:44:37 10° S 18:50:40 70° E 18:56:48 10° NNE
Abrixas rocket 2.2 18:48:44 10° WSW 18:52:02 80° S 18:55:19 10° E
Cosmos 1420 Rocket 4.1 18:47:05 10° NNW 18:52:20 56° ENE 18:57:32 10° SE
Cosmos 2218 Rocket 3.9 18:47:08 10° S 18:53:15 76° E 18:59:25 10° NNE
Cosmos 2237 Rocket 3.4 18:50:02 10° N 18:54:31 23° NE 18:58:59 10° E
Cosmos 1626 2.2 18:53:05 10° N 18:56:51 88° W 19:00:35 10° S
Cosmos 44 4.5 18:54:07 10° SSE 18:57:07 18° ESE 19:00:07 10° ENE
Cosmos 1727 Rocket 4.0 18:51:37 10° N 18:58:01 76° E 19:04:22 10° SSE
H-2A R/B 4.2 18:57:45 10° ESE 19:00:35 19° ENE 19:03:27 10° NNE
Cosmos 1400 Rocket 3.0 18:57:06 10° NNW 19:01:11 79° W 19:05:09 10° S
GP-B 3.1 18:57:37 10° N 19:02:04 71° E 19:06:30 10° S
Aureole 2 4.1 18:59:09 10° NNW 19:02:11 68° ENE 19:05:30 10° SSE
Cosmos 1461 4.0 18:59:47 10° WSW 19:03:43 44° NW 19:07:52 10° NNE
SL-16 R/B 3.9 19:01:54 10° N 19:05:13 15° NE 19:08:15 11° ENE
SKYMED 2 3.8 19:01:42 10° NNE 19:05:54 46° E 19:10:05 10° S
BREEZE-M DEB (TANK) 3.2 19:05:20 10° S 19:06:32 14° SE 19:07:21 12° ESE
SMAP 4.2 19:02:25 10° S 19:06:55 48° W 19:11:27 10° NNW
Cosmos 1743 Rocket 3.9 19:03:46 10° NNW 19:08:09 72° W 19:12:32 10° S
MOS 1 4.3 19:08:01 10° SSE 19:13:42 89° ENE 19:19:26 10° NNW
SL-8 R/B 4.1 19:09:05 10° SW 19:13:44 50° SSE 19:17:29 15° E
Cosmos 2221 3.0 19:10:01 10° SSE 19:14:01 38° E 19:18:04 10° NNE
Cosmos 921 Rocket 3.1 19:12:23 10° NNW 19:16:53 84° WSW 19:21:16 10° SSE
Cosmos 2360 Rocket 2.8 19:11:21 10° NW 19:16:55 61° WSW 19:22:29 10° S
Cosmos 1980 4.5 19:13:42 10° NNW 19:18:45 32° NE 19:22:46 15° ESE
Cosmos 2084 3.7 19:16:37 10° NNW 19:20:12 38° NE 19:22:36 18° E
Cosmos 1300 4.1 19:17:42 10° SE 19:23:49 - NE 19:20:01 18° E
Cosmos 1842 Rocket 3.6 19:16:11 10° S 19:20:40 86° WNW 19:25:08 10° N
FREGAT/IRIS 3.6 19:19:25 17° ESE 19:20:59 25° ENE 19:23:33 10° NNE
CZ-4 R/B 3.1 19:17:23 10° SSW 19:21:19 39° W 19:25:14 10° NNW
COSMOS 2428 2.7 19:18:23 10° NNW 19:24:07 77° ENE 19:29:48 10° SSE
Cosmos 44 Rocket 3.9 19:20:53 10° S 19:25:05 33° ESE 19:28:13 16° ENE
ATLAS 5 CENTAUR R/B 4.1 19:23:13 10° NW 19:26:40 17° N 19:30:23 10° NE
Cosmos 2333 Rocket 2.5 19:21:34 10° NNW 19:27:09 48° NE 19:32:29 11° SE
Cosmos 1500 Rocket 4.3 19:24:44 10° NNW 19:29:01 56° W 19:33:14 10° S
Cosmos 1833 4.2 19:26:40 10° SSW 19:32:21 85° WNW 19:38:02 10° NNE
Cosmos 2219 3.6 19:29:03 10° S 19:34:20 39° ESE 19:39:38 10° NE
CZ-4C R/B 2.7 19:33:17 10° S 19:38:05 37° ESE 19:41:54 17° ENE
Cosmos 1269 Rocket 4.2 19:35:21 10° S 19:40:22 46° ESE 19:45:26 10° NNE
FENGYUN 3A 3.6 19:36:10 10° SSE 19:41:35 89° E 19:47:02 10° NNW
EO 1 Del DPAF 3.9 19:39:17 10° N 19:43:05 57° WNW 19:46:50 10° SSW
SPOT 3 Rocket 4.2 19:40:51 10° S 19:45:59 60° WSW 19:51:10 10° NNW
Cosmos 1315 Rocket 3.9 19:43:13 10° NNW 19:47:10 48° W 19:51:07 10° S
Resurs 01 Rocket 2.6 19:47:33 26° ENE 19:47:38 26° ENE 19:51:17 10° N
Cosmos 468 4.4 19:42:43 10° SSW 19:47:56 82° ESE 19:53:13 10° NNE
NOSS 0 Rocket 3.9 19:43:43 10° NNW 19:49:52 64° NE 19:54:41 17° SE
Aureole 2 Rocket 2.6 19:46:55 10° NNW 19:50:48 80° ENE 19:54:00 16° SSE
FengYun 1-2 T 4.1 19:48:04 10° SSE 19:53:32 71° ENE 19:59:01 10° N
COSMO-SKYMED 1 3.2 19:49:43 10° N 19:54:01 59° WNW 19:58:16 10° SSW
Sich 1 3.0 19:51:53 10° N 19:56:14 64° ENE 20:00:35 10° SSE
Cosmos 2098 Rocket 3.5 19:56:34 10° S 20:01:18 82° E 20:07:24 10° N
Cosmos 1535 Rocket 4.3 19:57:23 10° S 20:03:28 72° E 20:09:34 10° NNE
Meteor 2-10 4.0 19:58:56 10° S 20:03:47 51° E 20:08:47 10° NNE
Cosmos 1726 1.9 20:00:14 10° S 20:03:55 80° E 20:07:37 10° NNE
Spot 2 Rocket 4.0 20:03:31 34° ENE 20:04:01 35° ENE 20:08:37 10° N
ALOS 3.1 20:00:14 10° S 20:04:47 53° W 20:09:23 10° NNW
Cosmos 2219 Rocket 2.2 19:59:21 10° NNW 20:04:59 85° WSW 20:10:07 13° SSE
USA 32 4.3 20:02:39 10° N 20:07:39 42° ENE 20:08:36 38° ESE
Cosmos 1805 Rocket 3.9 20:03:28 10° NNW 20:07:50 67° W 20:12:12 10° S
USA 234 3.7 20:05:13 27° ENE 20:08:31 49° NNE 20:14:47 10° WNW
Cosmos 1110 Rocket 3.9 20:03:44 10° NNW 20:09:05 75° ENE 20:12:12 25° SSE
Iridium 4 Rocket 4.0 20:05:00 10° S 20:10:38 74° W 20:16:34 10° N
SJ-6B 2.5 20:11:22 39° SSE 20:12:40 85° ENE 20:16:25 10° NNW
Lacrosse 5 rocket 2.9 20:09:32 10° WNW 20:13:14 26° N 20:14:21 23° NNE
MOS 1-B Rocket 3.9 20:12:48 24° SE 20:16:15 63° ENE 20:22:29 10° N
Cosmos 1666 Rocket 3.5 20:12:34 10° NNW 20:16:57 82° W 20:20:41 14° S
Cosmos 1633 Rocket 3.0 20:18:58 10° N 20:23:25 85° W 20:25:48 27° S
Cosmos 1933 Rocket 4.5 20:20:36 10° N 20:23:22 33° NNE 20:23:22 33° NNE
Abrixas rocket 3.1 20:25:22 10° W 20:27:51 47° W 20:27:51 47° W
Cosmos 1048 Rocket 4.4 20:26:56 10° SW 20:32:00 60° WNW 20:37:06 10° NNE
Cosmos 1821 Rocket 4.4 20:27:59 10° SSW 20:34:06 64° WNW 20:40:23 10° N
H-2A R/B 3.9 20:30:56 10° S 20:34:34 43° W 20:38:21 10° NNW
Cosmos 1934 Rocket 4.1 20:29:30 10° SSW 20:35:53 80° W 20:42:17 10° N
Cosmos 44 3.3 20:33:34 10° SW 20:37:52 63° NW 20:38:39 52° N
In-Cosmos 22 Rocket 4.4 20:32:16 10° NNW 20:38:00 74° W 20:43:20 12° S
Envisat 2.8 20:38:47 69° ENE 20:38:50 69° ENE 20:43:55 10° N
Cosmos 2237 Rocket 2.2 20:33:34 10° NNW 20:39:19 84° WSW 20:41:05 46° SSE
Thor Agena Rocket 4.0 20:39:02 10° N 20:44:03 58° WNW 20:49:00 10° SSW
Cosmos 2227 Rocket 3.6 20:44:34 10° S 20:46:46 24° S 20:46:46 24° S
SL-16 R/B 2.4 20:45:01 10° NNW 20:50:09 55° NE 20:50:09 55° NE
Cosmos 1300 4.0 20:52:05 10° SW 20:58:35 15° N 20:59:20 10° N
SL-8 R/B 4.0 20:51:18 10° W 20:55:28 66° W 20:55:28 66° W
Meteor 2-3 Rocket 3.6 20:51:21 10° NNW 20:57:11 90° E 20:57:37 77° SSE
Cosmos 1980 4.3 20:57:37 10° NW 21:03:06 53° WSW 21:04:40 40° SSW
Cosmos 44 Rocket 4.2 21:02:02 10° WSW 21:06:31 43° NW 21:06:58 41° NNW
Cosmos 1605 Rocket 4.2 21:02:23 10° SSW 21:08:26 67° WNW 21:14:31 10° N
Cosmos 1153 Rocket 4.3 21:11:15 87° N 21:11:15 87° N 21:17:24 10° N
Cosmos 2333 Rocket 3.7 21:06:10 10° NW 21:11:15 33° WSW 21:14:33 19° SSW
ATLAS 5 CENTAUR R/B 3.7 21:08:39 10° NNW 21:12:33 25° NNE 21:12:33 25° NNE
USA 267 4.0 21:16:14 39° SSW 21:16:14 39° SSW 21:20:23 10° SW
Cosmos 2219 4.4 21:13:05 10° WSW 21:18:30 41° NW 21:23:18 13° NNE
Resurs 01 Rocket 3.2 21:25:07 33° WNW 21:25:07 33° WNW 21:28:07 10° NNW
CZ-4C R/B 2.9 21:21:05 10° WSW 21:26:24 51° NW 21:27:08 48° NNW
USA 234 3.6 21:52:34 61° WNW 21:52:34 61° WNW 21:57:51 10° NW
H-2A R/B 4.4 21:56:43 16° N 21:56:43 16° N 21:57:50 10° N
Lacrosse 5 rocket 4.3 21:49:21 10° NW 21:50:02 14° NW 21:50:02 14° NW
SL-16 R/B 4.4 22:29:44 10° NW 22:32:02 20° WNW 22:32:02 20° WNW
